Weather History for Fort Myers, FL

Change the Weather History Date:

Monday, December 10, 2012

  Actual Average Record
Temperature  
Mean Temperature 76 °F 67 °F  
Max Temperature 86 °F 77 °F 87 °F (1986)
Min Temperature 66 °F 57 °F 32 °F (1917)
Degree Days  
Heating Degree Days 0 2  
Month to date heating degree days 0 15  
Since 1 July heating degree days 15 33  
Cooling Degree Days 11 4  
Month to date cooling degree days 73 47  
Year to date cooling degree days 4286 3910  
Growing Degree Days 25 (Base 50)    
Moisture  
Dew Point 70 °F    
Average Humidity 87    
Maximum Humidity 97    
Minimum Humidity 65    
Precipitation  
Precipitation 0.05 in 0.05 in 3.00 in (1969)
Month to date precipitation 0.44 0.47  
Year to date precipitation 47.87 54.69  
Sea Level Pressure  
Sea Level Pressure 29.96 in    
Wind  
Wind Speed 6 mph (South)    
Max Wind Speed 18 mph    
Max Gust Speed 26 mph    
Visibility 9 miles    
Events Rain    
T = Trace of Precipitation, MM = Missing Value Source: NWS Daily Summary

Daily Weather History Graph

Daily Weather History Graph

Search for Another Location

Airport:

Trip Planner

Search our weather history database for the weather conditions in past years. The results will help you decide how hot, cold, wet, or windy it might be!

Date:

Astronomy

Dec. 10, 2012 Rise Set
Actual Time 7:05 AM EST 5:35 PM EST
Civil Twilight 6:39 AM EST 6:01 PM EST
Nautical Twilight 6:11 AM EST 6:29 PM EST
Astronomical Twilight 5:42 AM EST 6:58 PM EST
Moon 3:57 AM EST (12/10) 3:15 PM EST (12/10)
Length of Visible Light 11h 21m
Length of Day
10h 30m
Waning Crescent, 10% of the Moon is Illuminated
Dec 10
Waning Crescent
Dec 13
New
Dec 20
First Quarter
Dec 28
Full
Jan 4
Last Quarter

Hourly Weather History & Observations

Time (EST) Temp. Heat Index Dew Point Humidity Pressure Visibility Wind Dir Wind Speed Gust Speed Precip Events Conditions
12:53 AM 69.1 °F - 64.9 °F 87% 30.01 in 10.0 mi Calm Calm - N/A   Scattered Clouds
1:53 AM 70.0 °F - 66.0 °F 87% 30.01 in 10.0 mi Calm Calm - N/A   Mostly Cloudy
2:53 AM 69.1 °F - 66.0 °F 90% 29.99 in 10.0 mi Calm Calm - N/A   Partly Cloudy
3:53 AM 68.0 °F - 64.9 °F 90% 29.98 in 10.0 mi Calm Calm - N/A   Mostly Cloudy
4:29 AM 66.2 °F - 64.4 °F 94% 29.97 in 10.0 mi Calm Calm - N/A   Scattered Clouds
4:53 AM 66.9 °F - 64.9 °F 93% 29.97 in 10.0 mi Calm Calm - N/A   Clear
5:53 AM 66.0 °F - 64.9 °F 96% 29.97 in 10.0 mi Calm Calm - N/A   Partly Cloudy
6:53 AM 66.9 °F - 64.9 °F 93% 29.98 in 10.0 mi Calm Calm - N/A   Clear
7:34 AM 68.0 °F - 66.2 °F 94% 29.98 in 10.0 mi SE 3.5 mph - N/A   Scattered Clouds
7:43 AM 69.8 °F - 66.2 °F 88% 29.99 in 10.0 mi SSE 3.5 mph - N/A   Mostly Cloudy
7:53 AM 69.1 °F - 68.0 °F 96% 30.00 in 4.0 mi SSE 3.5 mph - N/A   Mostly Cloudy
8:03 AM 69.8 °F - 69.8 °F 100% 29.99 in 1.8 mi SSE 4.6 mph - N/A   Overcast
8:30 AM 71.6 °F - 71.6 °F 100% 30.00 in 3.0 mi SSE 4.6 mph - N/A   Overcast
8:53 AM 73.0 °F - 72.0 °F 96% 30.00 in 7.0 mi SE 5.8 mph - N/A   Overcast
9:38 AM 75.2 °F - 73.4 °F 94% 29.99 in 10.0 mi SSE 5.8 mph - N/A   Scattered Clouds
9:53 AM 78.1 °F - 73.0 °F 84% 30.00 in 10.0 mi SSE 6.9 mph - N/A   Partly Cloudy
10:53 AM 82.0 °F 86.7 °F 72.0 °F 71% 29.98 in 10.0 mi South 9.2 mph - N/A   Mostly Cloudy
11:53 AM 84.0 °F 89.6 °F 72.0 °F 67% 29.96 in 10.0 mi South 8.1 mph - N/A   Scattered Clouds
12:53 PM 84.9 °F 91.4 °F 73.0 °F 67% 29.94 in 10.0 mi SSW 12.7 mph 19.6 mph N/A   Mostly Cloudy
1:53 PM 84.0 °F 90.2 °F 73.0 °F 69% 29.92 in 10.0 mi SSW 12.7 mph 20.7 mph N/A   Mostly Cloudy
2:53 PM 82.0 °F 86.3 °F 71.1 °F 69% 29.90 in 10.0 mi South 13.8 mph - N/A   Mostly Cloudy
3:53 PM 82.0 °F 87.4 °F 73.0 °F 74% 29.90 in 10.0 mi South 12.7 mph 18.4 mph N/A   Clear
4:53 PM 80.1 °F 84.2 °F 73.0 °F 79% 29.91 in 10.0 mi South 9.2 mph 20.7 mph N/A   Scattered Clouds
5:53 PM 79.0 °F - 73.0 °F 82% 29.90 in 10.0 mi South 10.4 mph 16.1 mph N/A   Mostly Cloudy
6:53 PM 78.1 °F - 73.0 °F 84% 29.93 in 10.0 mi South 5.8 mph - N/A   Overcast
7:53 PM 77.0 °F - 73.0 °F 88% 29.93 in 9.0 mi South 6.9 mph - 0.00 in Rain Light Rain
8:53 PM 77.0 °F - 73.0 °F 88% 29.95 in 10.0 mi South 5.8 mph - 0.00 in   Overcast
9:53 PM 77.0 °F - 73.0 °F 88% 29.94 in 10.0 mi SSE 6.9 mph - N/A   Mostly Cloudy
10:53 PM 77.0 °F - 73.0 °F 88% 29.94 in 8.0 mi South 4.6 mph - N/A   Overcast
11:13 PM 75.2 °F - 73.4 °F 94% 29.94 in 5.0 mi SSW 5.8 mph - 0.02 in Rain Light Rain
11:53 PM 73.9 °F - 72.0 °F 93% 29.95 in 10.0 mi South 5.8 mph - 0.05 in   Overcast